Left ArrowRight Arrow

Hourly Observations for May 3, 2024

Temp ( °F °C ) Dew Point ( °F °C ) Humidity (%) Winds ( mph kmh ) Pressure ( in mb ) Visibility ( mi km ) Precip ( " mm )
12:53 am 00:53 Partly Cloudy 71 21.7 64 17.8 79 79 Calm 29.99 1016 10 16 0.00 0.00
1:53 am 01:53 Clear 69 20.6 64 17.8 84 84 Calm 29.98 1015 10 16 0.00 0.00
2:53 am 02:53 Clear 68 20 64 17.8 87 87 Calm 29.98 1015 10 16 0.00 0.00
3:53 am 03:53 Mostly Clear 67 19.4 64 17.8 90 90 Calm 29.98 1015 10 16 0.00 0.00
4:53 am 04:53 Clear 66 18.9 64 17.8 93 93 Calm 29.99 1016 10 16 0.00 0.00
5:53 am 05:53 Clear 65 18.3 63 17.2 93 93 Calm 30.01 1016 10 16 0.00 0.00
6:50 am 06:50 Partly Cloudy 64 18 63 17 94 94 Calm 30.04 1017 7 11 0.00 0.00
7:00 am 07:00 Mostly Cloudy with Mist and Fog 65 18.3 63 17.2 93 93 Calm 30.04 1017 4 6 0.00 0.00
7:09 am 07:09 Cloudy with Mist and Fog 65 18.3 64 17.8 97 97 Calm 30.04 1017 2 3 0.00 0.00
7:28 am 07:28 Cloudy with Mist and Fog 66 18.9 65 18.3 96 96 Calm 30.05 1018 3 5 0.00 0.00
7:41 am 07:41 Cloudy with Mist and Fog 67 19.4 65 18.3 93 93 Calm 30.04 1017 5 8 0.00 0.00
7:53 am 07:53 Cloudy with Mist and Fog 67 19.4 66 18.9 97 97 Calm 30.04 1017 6 10 0.00 0.00
8:10 am 08:10 Cloudy 67 19.4 65 18.3 93 93 VRB 3 6 30.05 1017 8 13 0.00 0.00
8:53 am 08:53 Mostly Cloudy 69 20.6 65 18.3 87 87 Calm 30.06 1018 10 16 0.00 0.00
9:09 am 09:09 Partly Cloudy 70 21.1 64 17.8 81 81 WSW 3 6 30.06 1018 10 16 0.00 0.00
9:53 am 09:53 Sunny 73 22.8 65 18.3 76 76 Calm 30.06 1018 10 16 0.00 0.00
10:53 am 10:53 Sunny 77 25 64 17.8 64 64 Calm 30.05 1018 10 16 0.00 0.00
11:53 am 11:53 Sunny 81 27.2 64 17.8 57 57 VRB 5 7 30.04 1017 10 16 0.00 0.00
12:53 pm 12:53 Sunny 84 28.9 62 16.7 48 48 VRB 3 6 30.02 1017 10 16 0.00 0.00
1:53 pm 13:53 Sunny 85 29.4 60 15.6 43 43 VRB 3 6 30.02 1017 10 16 0.00 0.00
2:53 pm 14:53 Sunny 86 30 60 15.6 42 42 undefined N/A 30.00 1016 10 16 0.00 0.00
3:53 pm 15:53 undefined N/A N/A N/A undefined N/A 30.00 1016 N/A 0.00 0.00
4:53 pm 16:53 undefined N/A N/A N/A undefined N/A 29.98 1015 N/A 0.00 0.00
5:53 pm 17:53 undefined N/A N/A N/A undefined N/A 29.99 1016 N/A 0.00 0.00
6:53 pm 18:53 undefined N/A N/A N/A undefined N/A 30.00 1016 N/A 0.00 0.00
7:53 pm 19:53 Cloudy 79 26.1 61 16.1 54 54 WSW 5 7 29.99 1016 10 16 0.00 0.00
8:53 pm 20:53 Cloudy 79 26.1 61 16.1 54 54 Calm 30.00 1016 10 16 0.00 0.00
9:53 pm 21:53 Cloudy 77 25 62 16.7 60 60 Calm 30.00 1016 10 16 0.00 0.00
10:53 pm 22:53 Cloudy 75 23.9 63 17.2 66 66 Calm 30.01 1016 10 16 0.00 0.00
11:53 pm 23:53 Cloudy 75 23.9 64 17.8 69 69 SSE 6 9 30.02 1017 10 16 0.00 0.00

Powered by Vaisala Xweather